Starlink 5652

operational
NORAD ID: 55334 Int'l Des: 2023-013 Owner: SPXS Country: US Constellation: starlink
LEOCIRCULAR

About Starlink 5652

Description loading...

Live Position

Loading 3D Globe...

Upcoming Passes

Altitude History

Altitude vs Time

uPlot chart will show altitude changes over time

Two-Line Element Set

1 55334U 23013D 25304.24700170 -.00000022 00000-0 13452-4 0 9998
2 55334 43.0069 283.9545 0001289 265.5131 94.5564 15.02534848152239
Epoch: Oct 31, 2025 • Age: 29 hours

Current Status

Altitude 561.1 km
Velocity 7.59 km/s
Sub-Earth Point 34.12°N, 157.93°W
Launch Date Jan 26, 2023
Age 2.7 years
Type internet

Technical Details

Classification Payload
Mass 305.00 kg
Dry Mass 290.00 kg
Total Mass 305.00 kg
Length 0.20 m
Diameter 2.80 m
Span 9.00 m
Shape Box + pan
Manufacturer SPXS
Bus Type Starlink
Phase Status In Orbit
Owner/State SPXS/US

Large Constellations

Loading constellations...